[Iaude] MPEC N22: 2024 NB [a=1.77,e=0.44,i=18.3,H=25.3]
    mpec at cfa.harvard.edu 
    mpec at cfa.harvard.edu
       
    Tue Jul  2 21:03:47 EDT 2024
    
    
  
M.P.E.C. 2024-N22                                  Issued 2024 July 3, 01:02 UT
     The Minor Planet Electronic Circulars contain information on unusual
         minor planets, routine data on comets and natural satellites,
         and occasional editorial announcements.  They are published
    on behalf of Division F of the International Astronomical Union by the
          Minor Planet Center, Smithsonian Astrophysical Observatory,
                          Cambridge, MA 02138, U.S.A.
			  
             Prepared using the Tamkin Foundation Computer Network
                              MPC at CFA.HARVARD.EDU
            URL https://www.minorplanetcenter.net/    ISSN 1523-6714
                                    2024 NB                                     
Observations:
     K24N00B* C2024 07 01.23897120 49 34.145-51 22 36.12         18.14oVEN022W68
     K24N00B  C2024 07 01.24123820 49 37.800-51 20 32.21         18.45oVEN022W68
     K24N00B  C2024 07 01.24441520 49 42.977-51 17 35.27         17.70oVEN022W68
     K24N00B  C2024 07 01.27571720 50 33.811-50 48 07.09         17.87oVEN022W68
     K24N00B  C2024 07 01.38440420 53 30.14 -48 59 37.1                WEN022X09
     K24N00B  C2024 07 01.38723520 53 34.88 -48 56 38.8                WEN022X09
     K24N00B  C2024 07 01.50670920 57 51.701-46 55 54.42               VEN022F51
     K24N00B  C2024 07 01.51552020 58 05.428-46 46 11.35         17.43GVEN022F51
     K24N00B  C2024 07 01.52486320 58 19.963-46 35 48.25               VEN022F51
     K24N00B KB2024 07 02.05559621 15 03.894-34 46 09.09               ZEN022Y05
     K24N00B KB2024 07 02.05774521 15 07.391-34 42 54.48         17.9 VZEN022Y05
     K24N00B KB2024 07 02.05986221 15 10.778-34 39 42.54         17.3 VZEN022Y05
     K24N00B  C2024 07 02.06053321 15 13.96 -34 34 38.9                WEN022X09
     K24N00B  C2024 07 02.06405821 15 20.19 -34 29 20.2                WEN022X09
     K24N00B  C2024 07 02.25276421 20 20.717-29 27 29.16         16.87oVEN022W68
     K24N00B  C2024 07 02.25456621 20 23.405-29 24 25.52         16.55oVEN022W68
     K24N00B  C2024 07 02.25775021 20 28.102-29 18 58.64         16.75oVEN022W68
     K24N00B  C2024 07 02.26288321 20 35.594-29 10 19.06         17.26oVEN022W68
     K24N00B  C2024 07 02.55524121 28 39.282-20 28 57.35         17.03GVEN022F51
     K24N00B  C2024 07 02.56500021 28 52.786-20 10 14.71         17.18GVEN022F51
     K24N00B  C2024 07 02.57476721 29 06.304-19 51 26.84         17.34GVEN022F51
     K24N00B  C2024 07 02.58452821 29 19.828-19 32 35.40         17.40GVEN022F51
     K24N00B KC2024 07 02.64280421 31 06.986-17 26 42.72         17.9 GVEN022474
     K24N00B KC2024 07 02.64388021 31 08.532-17 24 36.25         18.1 GVEN022474
     K24N00B KC2024 07 02.64495521 31 10.075-17 22 29.78         17.8 GVEN022474
     K24N00B KC2024 07 02.64602921 31 11.614-17 20 22.92         17.3 GVEN022474
Observer details:
474 Mount John Observatory, Lake Tekapo.  Observers A. C. Gilmore, P. M.
    Kilmartin.  Measurer P. M. Kilmartin.  0.6-m f/6.3 Reflector + CCD.
F51 Pan-STARRS 1, Haleakala.  Observers J. Herman, T. Lowe, P. Minguez, A.
    Schultz, I. Smith.  Measurers K. Chambers, T. de Boer, J. Fairlamb, H.
    Gao, M. Huber, C.-C. Lin, E. Magnier, Y. Ramanjooloo, R. Wainscoat, R.
    Weryk.  1.8-m Ritchey-Chretien + CCD.
W68 ATLAS Chile, Rio Hurtado.  Observers L. Denneau, R. Siverd, J. Tonry, H.
    Weiland.  Measurers L. Denneau, N. Erasmus, A. Fitzsimmons, J. Robinson,
    R. Siverd, J. Tonry, H. Weiland.  0.5-m Reflector + CCD.
X09 Deep Random Survey, Rio Hurtado.  Observers A. Schnabel, D. Ruhela.
    Measurer S. Deen.  0.43-m reflector + CMOS.
Y05 SONEAR Wykrota-CEAMIG, Serra da Piedade.  Observers C. Jacques, A.
    Caetano, E. Pimentel.  Measurer C. Jacques.  0.45-m f/2.9 reflector + CMO.
Orbital elements:
2024 NB                                                  Earth MOID = 0.0085 AU
Epoch 2024 Mar. 31.0 TT = JDT 2460400.5                 Veres                   
M 310.51921              (2000.0)            P               Q                  
n   0.41949988     Peri.   28.43119     +0.61710205     +0.72394026             
a   1.7673185      Node   281.42020     -0.76833175     +0.46976039             
e   0.4407960      Incl.   18.33693     -0.16985698     +0.50520854             
P   2.35           H   25.32          G   0.15           U   6                  
Residuals in seconds of arc
240701 W68  0.3+  0.5+    240702 Y05  0.6+  0.5-    240702 F51  0.0   0.1-
240701 W68  0.1-  1.3-    240702 Y05  0.6+  0.3-    240702 F51  0.0   0.1-
240701 W68  0.2-  0.9-    240702 Y05  0.1+  0.1-    240702 F51  0.0   0.1-
240701 W68 (0.3+  1.7+)   240702 X09  1.3-  1.8+    240702 F51  0.0   0.2+
240701 X09  0.6-  0.2+    240702 X09  0.5-  0.9+    240702 474  0.1-  0.3+
240701 X09  0.1+  0.9+    240702 W68  0.1-  0.7-    240702 474  0.0   0.1+
240701 F51  0.2+  0.2+    240702 W68  0.3+  0.1+    240702 474  0.0   0.1-
240701 F51  0.0   0.2+    240702 W68 (0.4+  3.2+)   240702 474  0.0   0.1+
240701 F51  0.1-  0.2+    240702 W68  0.3-  0.2-
Ephemeris:
2024 NB                  a,e,i = 1.77, 0.44, 18                  q = 0.9883
Date    TT    R. A. (2000) Decl.     Delta      r    Elong.  Phase     V
2024 06 03    15 26 47.2 -76 18 53   0.2212  1.1558   125.1    45.9    24.1
...
2024 06 18    16 01 35.5 -78 20 06   0.1109  1.0815   123.7    51.4    22.6
...
2024 06 26    18 01 51.6 -76 39 17   0.05286 1.0489   126.7    51.0    20.9
...
2024 07 02    21 12 41.2 -36 11 38   0.01415 1.0284   145.5    34.0    17.5
2024 07 03    21 40 44.8 -05 32 57   0.01212 1.0253   135.1    44.4    17.5
2024 07 04    22 05 32.1 +25 02 49   0.01419 1.0224   113.1    66.2    18.5
...
2024 07 10    23 38 55.8 +68 11 43   0.05271 1.0070    78.0    99.1    22.5
...
2024 07 18    00 33 51.0 +73 57 40   0.1097  0.9933    74.9    99.0    24.1
...
2024 08 02    01 28 59.6 +76 24 30   0.2123  0.9901    77.3    90.6    25.1
M. P. C. Staff               (C) Copyright 2024 MPC           M.P.E.C. 2024-N22
    
    
More information about the Iaude
mailing list